Terug naar catalogus

DODGE 1

ActiefWetenschapMEO
NORAD 2867·PAYLOAD·🇺🇸 United States

Gelanceerd Jul 1, 1967 vanaf Cape Canaveral Space Force Station

Loading…

Volgende Passages (komende 24 uur)

TLE

VersSource: Space-Track

Epoch: Sep 14, 2026, 13:31 UTC

1 02867U 67066F   26257.56347858 -.00000091  00000-0  00000-0 0  9997
2 02867   2.6964  95.0013 0052785 196.5558 119.4463  1.09167876134355

Volg DODGE 1 in realtime met AllMySat

Download on the App Store